Simultaneous Nadir Overpasses (SNOs) Predictions

Prediction of SNOs between GOES-16 and METOP-B Satellite Orbit:

Table of predicted SNOs for the next 14.0 days since TLE Epoch: 2/25/2023
Index Date Time (GOES-16) GOES-16 Lat,Lon METOP-B Lat,Lon Distance(km) Time Diff (sec)
1 02/26/2023 14:41:11 0.04, -75.20 0.50, -77.32 241.33 80
2 02/27/2023 14:17:52 0.03, -75.20 -0.61, -72.32 328.06 80
3 03/01/2023 02:39:32 -0.04, -75.20 -0.42, -76.92 196.01 80
4 03/02/2023 02:16:13 -0.03, -75.21 0.69, -71.93 373.65 80
5 03/03/2023 14:37:45 0.04, -75.23 0.30, -76.50 143.45 80
6 03/04/2023 14:14:26 0.04, -75.24 -0.82, -71.50 426.83 80
7 03/06/2023 02:36:06 -0.04, -75.25 -0.20, -76.10 95.86 80
8 03/07/2023 02:12:46 -0.04, -75.27 0.92, -71.11 474.84 80
9 03/08/2023 14:34:18 0.04, -75.30 0.12, -75.66 41.00 80
10 03/11/2023 02:29:59 -0.04, -75.34 0.01, -75.27 9.20 80
